Location: ????????
(55.6189°N, 38.3031°E)
Time: 22:26:38
(UTC+00:00)

ATLAS 2AS CENTAUR R/B - Pass Details

Date: 15 November 2019
Orbit: 926 x 1286 km, 63.7° (Epoch: 02 December)

Event Time Altitude Azimuth Distance (km) Brightness Sun altitude
Exits shadow 03:10:36 17° 304° (NW) 2,685 4.2 -15.2°
Maximum altitude 03:16:26 53° 234° (SW) 1,427 3.1 -14.4°
Drops below altitude 10° 03:23:21 10° 160° (SSE) 2,984 5.5 -13.4°
Sets 03:25:59 0° 156° (SSE) 3,887 6.2 -13.1°
